Time,TemperatureF,DewpointF,PressureIn,WindDirection,WindDirectionDegrees,WindSpeedMPH,WindSpeedGustMPH,Humidity,HourlyPrecipIn,Conditions,Clouds,dailyrainin,SoftwareType,DateUTC
2013-02-17 00:12:00,19.0,10.0,29.92,ENE,71,4.0,20.0,68,0.00,,,0.00,,2013-02-17 05:12:00,
2013-02-17 00:22:00,19.0,10.0,29.92,ENE,71,4.0,20.0,68,0.00,,,0.00,,2013-02-17 05:22:00,
2013-02-17 00:33:00,19.0,10.0,29.92,NE,34,5.0,23.0,66,0.00,,,0.00,,2013-02-17 05:33:00,
2013-02-17 00:52:00,19.0,10.0,29.92,NW,312,5.0,18.0,68,0.00,,,0.00,,2013-02-17 05:52:00,
2013-02-17 01:21:00,19.0,10.0,29.92,NNW,330,5.0,15.0,66,0.00,,,0.00,,2013-02-17 06:21:00,
2013-02-17 01:31:00,18.0,12.0,29.93,NNE,26,3.0,16.0,77,0.00,,,0.00,,2013-02-17 06:31:00,
2013-02-17 01:52:00,17.0,12.0,29.93,WNW,287,5.0,20.0,81,0.00,,,0.00,,2013-02-17 06:52:00,
2013-02-17 02:01:00,17.0,13.0,29.95,NNE,17,4.0,20.0,84,0.00,,,0.00,,2013-02-17 07:01:00,
2013-02-17 02:32:00,17.0,12.0,29.96,North,350,4.0,18.0,80,0.00,,,0.00,,2013-02-17 07:32:00,
2013-02-17 03:01:00,16.0,12.0,29.96,NNE,33,8.0,31.0,83,0.00,,,0.00,,2013-02-17 08:01:00,
2013-02-17 03:22:00,16.0,12.0,29.96,NNE,31,5.0,23.0,83,0.00,,,0.00,,2013-02-17 08:22:00,
2013-02-17 03:32:00,16.0,10.0,29.96,NNW,340,8.0,17.0,77,0.00,,,0.00,,2013-02-17 08:32:00,
2013-02-17 03:52:00,16.0,9.0,29.96,North,355,4.0,28.0,74,0.00,,,0.00,,2013-02-17 08:52:00,
2013-02-17 04:02:00,16.0,9.0,29.97,NNE,28,8.0,21.0,72,0.00,,,0.00,,2013-02-17 09:02:00,
2013-02-17 04:21:00,16.0,8.0,29.97,NNW,330,6.0,24.0,69,0.00,,,0.00,,2013-02-17 09:21:00,
2013-02-17 05:01:00,16.0,5.0,29.98,North,6,5.0,20.0,60,0.00,,,0.00,,2013-02-17 10:01:00,
2013-02-17 05:22:00,16.0,5.0,29.99,West,260,4.0,18.0,60,0.00,,,0.00,,2013-02-17 10:22:00,
2013-02-17 05:32:00,16.0,5.0,29.99,NNW,344,4.0,22.0,61,0.00,,,0.00,,2013-02-17 10:32:00,
2013-02-17 05:52:00,16.0,4.0,30.00,WNW,294,5.0,25.0,59,0.00,,,0.00,,2013-02-17 10:52:00,
2013-02-17 06:01:00,15.0,3.0,30.01,NNE,15,8.0,25.0,57,0.00,,,0.00,,2013-02-17 11:01:00,
2013-02-17 06:21:00,16.0,3.0,30.02,North,0,5.0,20.0,56,0.00,,,0.00,,2013-02-17 11:21:00,
2013-02-17 06:32:00,16.0,3.0,30.02,NNE,14,7.0,24.0,56,0.00,,,0.00,,2013-02-17 11:32:00,
2013-02-17 06:52:00,16.0,4.0,30.03,West,279,4.0,15.0,58,0.00,,,0.00,,2013-02-17 11:52:00,
2013-02-17 07:03:00,16.0,5.0,30.03,NNW,338,6.0,17.0,60,0.00,,,0.00,,2013-02-17 12:03:00,
2013-02-17 07:22:00,16.0,6.0,30.04,WNW,291,7.0,22.0,64,0.00,,,0.00,,2013-02-17 12:22:00,
2013-02-17 07:32:00,16.0,7.0,30.04,NNE,25,8.0,20.0,66,0.00,,,0.00,,2013-02-17 12:32:00,
2013-02-17 07:52:00,16.0,6.0,30.04,North,8,6.0,16.0,64,0.00,,,0.00,,2013-02-17 12:52:00,
2013-02-17 08:32:00,16.0,8.0,30.04,SE,143,9.0,26.0,69,0.00,,,0.00,,2013-02-17 13:32:00,
2013-02-17 08:52:00,17.0,9.0,30.06,WNW,296,6.0,20.0,69,0.00,,,0.00,,2013-02-17 13:52:00,
2013-02-17 09:22:00,17.0,7.0,30.06,NW,325,4.0,7.0,64,0.00,,,0.00,,2013-02-17 14:22:00,
2013-02-17 09:53:00,18.0,9.0,30.08,ENE,71,7.0,24.0,68,0.00,,,0.00,,2013-02-17 14:53:00,
2013-02-17 10:02:00,17.0,9.0,30.08,NNE,28,7.0,21.0,71,0.00,,,0.00,,2013-02-17 15:02:00,
2013-02-17 10:32:00,19.0,9.0,30.09,NW,309,7.0,23.0,65,0.00,,,0.00,,2013-02-17 15:32:00,
2013-02-17 10:52:00,19.0,9.0,30.09,North,0,9.0,26.0,65,0.00,,,0.00,,2013-02-17 15:52:00,
2013-02-17 11:01:00,19.0,9.0,30.09,North,2,6.0,23.0,64,0.00,,,0.00,,2013-02-17 16:01:00,
2013-02-17 11:21:00,19.0,10.0,30.10,West,277,6.0,23.0,66,0.00,,,0.00,,2013-02-17 16:21:00,
2013-02-17 12:02:00,21.0,9.0,30.11,NNW,341,9.0,20.0,60,0.00,,,0.00,,2013-02-17 17:02:00,
2013-02-17 12:52:00,23.0,8.0,30.10,NNW,344,11.0,23.0,52,0.00,,,0.00,,2013-02-17 17:52:00,
2013-02-17 13:02:00,23.0,8.0,30.10,North,5,9.0,21.0,51,0.00,,,0.00,,2013-02-17 18:02:00,
2013-02-17 13:22:00,23.0,8.0,30.10,NNE,19,7.0,28.0,52,0.00,,,0.00,,2013-02-17 18:22:00,
2013-02-17 13:33:00,25.0,9.0,30.09,East,86,5.0,23.0,50,0.00,,,0.00,,2013-02-17 18:33:00,
2013-02-17 13:42:00,25.0,9.0,30.09,East,86,5.0,23.0,50,0.00,,,0.00,,2013-02-17 18:42:00,
2013-02-17 13:52:00,25.0,9.0,30.09,NW,306,9.0,26.0,49,0.00,,,0.00,,2013-02-17 18:52:00,
2013-02-17 14:01:00,25.0,9.0,30.09,NW,306,9.0,26.0,49,0.00,,,0.00,,2013-02-17 19:01:00,
2013-02-17 14:11:00,25.0,9.0,30.09,NW,306,9.0,26.0,49,0.00,,,0.00,,2013-02-17 19:11:00,
2013-02-17 14:22:00,26.0,7.0,30.08,NE,49,9.0,32.0,44,0.00,,,0.00,,2013-02-17 19:22:00,
2013-02-17 14:32:00,26.0,7.0,30.08,NE,49,9.0,32.0,44,0.00,,,0.00,,2013-02-17 19:32:00,
2013-02-17 14:42:00,26.0,7.0,30.08,NE,49,9.0,32.0,44,0.00,,,0.00,,2013-02-17 19:42:00,
2013-02-17 14:52:00,27.0,9.0,30.08,WSW,242,7.0,25.0,47,0.00,,,0.00,,2013-02-17 19:52:00,
2013-02-17 15:02:00,27.0,9.0,30.08,NNE,20,8.0,31.0,45,0.00,,,0.00,,2013-02-17 20:02:00,
2013-02-17 15:11:00,27.0,9.0,30.08,NNE,20,8.0,31.0,45,0.00,,,0.00,,2013-02-17 20:11:00,
2013-02-17 15:22:00,27.0,9.0,30.08,NNE,20,8.0,31.0,45,0.00,,,0.00,,2013-02-17 20:22:00,
2013-02-17 15:32:00,27.0,9.0,30.08,NNE,20,8.0,31.0,45,0.00,,,0.00,,2013-02-17 20:32:00,
2013-02-17 15:52:00,28.0,10.0,30.08,North,0,6.0,24.0,46,0.00,,,0.00,,2013-02-17 20:52:00,
2013-02-17 16:02:00,28.0,7.0,30.08,NE,50,10.0,26.0,41,0.00,,,0.00,,2013-02-17 21:02:00,
2013-02-17 16:11:00,28.0,7.0,30.08,NE,50,10.0,26.0,41,0.00,,,0.00,,2013-02-17 21:11:00,
2013-02-17 16:21:00,28.0,7.0,30.09,ESE,106,9.0,24.0,40,0.00,,,0.00,,2013-02-17 21:21:00,
2013-02-17 16:32:00,28.0,6.0,30.09,North,351,7.0,26.0,39,0.00,,,0.00,,2013-02-17 21:32:00,
2013-02-17 17:01:00,28.0,5.0,30.09,NE,35,9.0,18.0,37,0.00,,,0.00,,2013-02-17 22:01:00,
2013-02-17 17:22:00,28.0,6.0,30.10,NNW,340,8.0,18.0,39,0.00,,,0.00,,2013-02-17 22:22:00,
2013-02-17 17:32:00,28.0,6.0,30.11,NNE,28,6.0,20.0,39,0.00,,,0.00,,2013-02-17 22:32:00,
2013-02-17 18:22:00,26.0,5.0,30.13,West,274,8.0,21.0,40,0.00,,,0.00,,2013-02-17 23:22:00,
2013-02-17 18:32:00,26.0,6.0,30.13,NW,317,2.0,17.0,42,0.00,,,0.00,,2013-02-17 23:32:00,
2013-02-17 18:52:00,26.0,7.0,30.14,NNE,28,4.0,14.0,43,0.00,,,0.00,,2013-02-17 23:52:00,
2013-02-17 19:01:00,26.0,7.0,30.15,WNW,295,3.0,12.0,43,0.00,,,0.00,,2013-02-18 00:01:00,
2013-02-17 19:22:00,25.0,6.0,30.15,NNW,335,2.0,12.0,44,0.00,,,0.00,,2013-02-18 00:22:00,
2013-02-17 19:32:00,25.0,6.0,30.16,North,0,5.0,16.0,43,0.00,,,0.00,,2013-02-18 00:32:00,
2013-02-17 20:01:00,26.0,7.0,30.16,ENE,68,5.0,14.0,44,0.00,,,0.00,,2013-02-18 01:01:00,
2013-02-17 20:12:00,26.0,7.0,30.16,ENE,68,5.0,14.0,44,0.00,,,0.00,,2013-02-18 01:12:00,
2013-02-17 20:21:00,25.0,6.0,30.17,NW,324,5.0,13.0,44,0.00,,,0.00,,2013-02-18 01:21:00,
2013-02-17 20:32:00,26.0,7.0,30.17,NNE,31,3.0,17.0,44,0.00,,,0.00,,2013-02-18 01:32:00,
2013-02-17 20:42:00,26.0,7.0,30.17,NNE,31,3.0,17.0,44,0.00,,,0.00,,2013-02-18 01:42:00,
2013-02-17 20:52:00,26.0,7.0,30.17,NNW,347,6.0,15.0,43,0.00,,,0.00,,2013-02-18 01:52:00,
2013-02-17 21:02:00,26.0,7.0,30.17,NNW,347,6.0,15.0,43,0.00,,,0.00,,2013-02-18 02:02:00,
2013-02-17 21:11:00,26.0,7.0,30.17,NNW,347,6.0,15.0,43,0.00,,,0.00,,2013-02-18 02:11:00,
2013-02-17 21:22:00,26.0,7.0,30.17,ENE,65,3.0,17.0,43,0.00,,,0.00,,2013-02-18 02:22:00,
2013-02-17 21:32:00,25.0,5.0,30.18,NW,326,4.0,12.0,42,0.00,,,0.00,,2013-02-18 02:32:00,
2013-02-17 21:42:00,25.0,5.0,30.18,NW,326,4.0,12.0,42,0.00,,,0.00,,2013-02-18 02:42:00,
2013-02-17 21:52:00,25.0,5.0,30.18,NNW,347,3.0,10.0,42,0.00,,,0.00,,2013-02-18 02:52:00,
2013-02-17 22:01:00,25.0,5.0,30.18,NNW,347,3.0,10.0,42,0.00,,,0.00,,2013-02-18 03:01:00,
2013-02-17 22:11:00,25.0,5.0,30.18,NNW,347,3.0,10.0,42,0.00,,,0.00,,2013-02-18 03:11:00,
2013-02-17 22:21:00,25.0,5.0,30.20,NW,315,1.0,6.0,42,0.00,,,0.00,,2013-02-18 03:21:00,
2013-02-17 22:32:00,25.0,6.0,30.20,ENE,68,0.0,5.0,44,0.00,,,0.00,,2013-02-18 03:32:00,
2013-02-17 22:42:00,25.0,6.0,30.20,ENE,68,0.0,5.0,44,0.00,,,0.00,,2013-02-18 03:42:00,
2013-02-17 22:52:00,25.0,7.0,30.20,NW,315,1.0,5.0,45,0.00,,,0.00,,2013-02-18 03:52:00,
2013-02-17 23:01:00,25.0,7.0,30.20,NW,315,1.0,5.0,45,0.00,,,0.00,,2013-02-18 04:01:00,
2013-02-17 23:11:00,25.0,7.0,30.20,NW,315,1.0,5.0,45,0.00,,,0.00,,2013-02-18 04:11:00,
2013-02-17 23:21:00,24.0,6.0,30.19,NNW,338,1.0,3.0,46,0.00,,,0.00,,2013-02-18 04:21:00,
2013-02-17 23:32:00,24.0,7.0,30.21,WNW,303,1.0,3.0,47,0.00,,,0.00,,2013-02-18 04:32:00,
2013-02-17 23:42:00,24.0,7.0,30.21,WNW,303,1.0,3.0,47,0.00,,,0.00,,2013-02-18 04:42:00,
2013-02-17 23:52:00,24.0,7.0,30.19,West,279,3.0,6.0,47,0.00,,,0.00,,2013-02-18 04:52:00,